This demonstration page uses our WeatherBlox Daily Observations layout. Learn more.

Left ArrowRight Arrow

Hourly Observations for December 15, 2020

Temp ( °F °C ) Dew Point ( °F °C ) Humidity (%) Winds ( mph kmh ) Pressure ( in mb ) Visibility ( mi km ) Precip ( " mm )
12:53 am 00:53 Clear 20 -6.7 17 -8.3 89 89 Calm 30.36 1028 10 16 0.00 0.00
1:53 am 01:53 Clear 22 -5.6 19 -7.2 89 89 Calm 30.37 1028 9 14 0.00 0.00
2:53 am 02:53 Clear 22 -5.6 19 -7.2 89 89 Calm 30.37 1029 9 14 0.00 0.00
3:53 am 03:53 Clear 20 -6.7 17 -8.3 89 89 Calm 30.36 1028 8 13 0.00 0.00
4:53 am 04:53 Clear 19 -7.2 17 -8.3 92 92 Calm 30.35 1028 7 11 0.00 0.00
5:53 am 05:53 Clear 25 -3.9 20 -6.7 81 81 NE 7 11 30.35 1028 10 16 0.00 0.00
6:53 am 06:53 Clear 23 -5 19 -7.2 85 85 ENE 3 6 30.36 1028 10 16 0.00 0.00
7:53 am 07:53 Sunny 19 -7.2 17 -8.3 92 92 Calm 30.39 1029 8 13 0.00 0.00
8:53 am 08:53 Sunny 24 -4.4 20 -6.7 84 84 Calm 30.42 1030 10 16 0.00 0.00
9:53 am 09:53 Sunny 28 -2.2 20 -6.7 72 72 ENE 6 9 30.43 1031 10 16 0.00 0.00
10:53 am 10:53 Sunny 31 -0.6 21 -6.1 67 67 NE 8 13 30.42 1030 10 16 0.00 0.00
11:53 am 11:53 Sunny 33 0.6 21 -6.1 61 61 E 9 15 30.39 1029 10 16 0.00 0.00
12:53 pm 12:53 Sunny 35 1.7 20 -6.7 54 54 E 7 11 30.34 1028 10 16 0.00 0.00
1:53 pm 13:53 Sunny 35 1.7 20 -6.7 54 54 ENE 10 17 30.31 1026 10 16 0.00 0.00
2:53 pm 14:53 Sunny 35 1.7 21 -6.1 57 57 ENE 12 19 30.27 1025 10 16 0.00 0.00
3:53 pm 15:53 Sunny 34 1.1 21 -6.1 59 59 ENE 9 15 30.24 1024 10 16 0.00 0.00
4:53 pm 16:53 Sunny 34 1.1 21 -6.1 59 59 ENE 10 17 30.23 1024 10 16 0.00 0.00
5:53 pm 17:53 Clear 32 0 21 -6.1 64 64 ENE 8 13 30.22 1023 10 16 0.00 0.00
6:53 pm 18:53 Clear 31 -0.6 21 -6.1 67 67 ENE 9 15 30.22 1023 10 16 0.00 0.00
7:53 pm 19:53 Clear 32 0 20 -6.7 61 61 E 13 20 30.19 1023 10 16 0.00 0.00
8:53 pm 20:53 Clear 31 -0.6 20 -6.7 64 64 E 9 15 30.19 1022 10 16 0.00 0.00
9:53 pm 21:53 Clear 30 -1.1 19 -7.2 64 64 ENE 7 11 30.16 1021 10 16 0.00 0.00
10:53 pm 22:53 Partly Cloudy 31 -0.6 20 -6.7 64 64 ENE 8 13 30.16 1021 10 16 0.00 0.00
11:53 pm 23:53 Mostly Cloudy 31 -0.6 20 -6.7 64 64 E 8 13 30.14 1021 10 16 0.00 0.00

Powered by AerisWeather